Ottumwa Industrial Airport
Thursday 12:53 AM
Temperature61° (61°/61°)
Dew Point58°
Relative Humidity90
%
Visibility10
mi
Pressure1013.9
mb
Wind DirectionS
190°
Wind Speed7
mph
Precipitation Today0.00"

Terminal Aerodrome Forecast

494 
FTUS43 KDMX 240520
TAFOTM
TAF
KOTM 240520Z 2406/2506 18005KT P6SM SKC
     FM241600 19011KT P6SM FEW100 SCT200
     FM242200 18007KT P6SM FEW200=

Last 30 Observations

Time PresWx Temp DP Feels RH% Vsby Pressure Ceiling Direction Speed 1h Precip
12:53 AM 61° 58° 90
%
10
mi
1013.9
mb
S
190°
7
mph
0.00"
11:53 PM 62° 58° 86
%
10
mi
1014.6
mb
S
180°
7
mph
0.00"
10:53 PM 62° 58° 86
%
10
mi
1014.9
mb
S
180°
7
mph
0.00"
9:53 PM 63° 59° 87
%
10
mi
1014.9
mb
4,500
ft
S
180°
6
mph
0.00"
8:53 PM 63° 58° 84
%
10
mi
1014.9
mb
S
190°
6
mph
0.00"
7:53 PM 63° 59° 87
%
10
mi
1014.6
mb
SSE
160°
5
mph
0.00"
6:53 PM 70° 60° 71
%
10
mi
1014.2
mb
S
170°
3
mph
0.00"
5:53 PM 75° 58° 75°55
%
10
mi
1014.2
mb
S
170°
5
mph
0.00"
4:53 PM 77° 58° 77°52
%
10
mi
1014.9
mb
Variable 3
mph
0.00"
3:53 PM 77° 58° 77°52
%
10
mi
1014.9
mb
SW
230°
7
mph
0.00"
2:53 PM 75° 58° 75°55
%
10
mi
1015.6
mb
SSE
150°
10
mph
0.00"
1:53 PM 76° 59° 76°56
%
10
mi
1016.6
mb
SSW
210°
9
mph
0.00"
12:53 PM 75° 60° 75°60
%
10
mi
1017.3
mb
S
190°
6
mph
0.00"
11:53 AM 73° 63° 73°71
%
10
mi
1017.6
mb
Calm 0.00"
10:53 AM 69° 63° 81
%
10
mi
1018.3
mb
SW
230°
3
mph
0.00"
9:53 AM 64° 61° 90
%
10
mi
1018.3
mb
SSW
210°
3
mph
0.00"
8:53 AM 62° 61° 96
%
7
mi
1018.0
mb
SSW
200°
3
mph
0.00"
7:53 AM BR 57° 57° 100
%
5
mi
1018.3
mb
S
190°
3
mph
0.00"
7:40 AM BR 56° 56° 100
%
4
mi
1018.0
mb
4,000
ft
S
190°
3
mph
0.00"
7:32 AM BR 54° 54° 100
%
2
mi
1018.0
mb
4,000
ft
SSW
200°
3
mph
0.00"
7:26 AM FG 53° 53° 100
%
½
mi
1018.0
mb
SSW
200°
3
mph
0.00"
7:18 AM BR 55° 55° 100
%
mi
1018.0
mb
SSW
210°
3
mph
0.00"
6:53 AM BR 54° 54° 100
%
4
mi
1017.6
mb
S
190°
3
mph
0.00"
5:53 AM 55° 55° 100
%
7
mi
1018.0
mb
SSW
200°
5
mph
0.00"
4:53 AM 56° 55° 97
%
8
mi
1018.0
mb
SSW
200°
3
mph
0.00"
3:53 AM 56° 55° 97
%
9
mi
1018.0
mb
SSW
200°
6
mph
0.00"
2:53 AM 56° 55° 97
%
10
mi
1018.0
mb
S
190°
5
mph
0.00"
1:53 AM 57° 56° 96
%
10
mi
1018.3
mb
SSW
200°
7
mph
0.00"
12:53 AM 58° 55° 90
%
10
mi
1018.3
mb
S
190°
6
mph
0.00"
11:53 PM 56° 54° 93
%
10
mi
1018.6
mb
S
170°
5
mph
0.00"